This demonstration page uses our WeatherBlox Daily Observations layout. Learn more.

Left ArrowRight Arrow

Hourly Observations for March 7, 2020

Temp ( °F °C ) Dew Point ( °F °C ) Humidity (%) Winds ( mph kmh ) Pressure ( in mb ) Visibility ( mi km ) Precip ( " mm )
7:40 am 07:40 Sunny 21 -5.9 20 -6.7 94 94 N N/A 30.63 1037 10 16 N/A
7:55 am 07:55 Sunny 24 -4.6 22 -5.3 95 95 N N/A 30.63 1037 10 16 N/A
8:15 am 08:15 Sunny 25 -3.7 23 -5.1 90 90 N N/A 30.64 1037 10 16 N/A
8:35 am 08:35 Sunny 26 -3.2 23 -5 88 88 N N/A 30.64 1037 10 16 N/A
8:55 am 08:55 Sunny 28 -2.5 24 -4.5 86 86 N N/A 30.64 1038 10 16 N/A
9:15 am 09:15 Sunny 29 -1.7 25 -4.1 84 84 N N/A 30.64 1038 10 16 N/A
9:35 am 09:35 Sunny 30 -0.9 25 -3.9 80 80 N N/A 30.65 1038 10 16 N/A
9:55 am 09:55 Sunny 32 undefined 25 -3.8 76 76 N N/A 30.64 1038 10 16 N/A
10:15 am 10:15 Sunny 33 0.7 25 -4 71 71 SSE 5 7 30.64 1038 10 16 N/A
10:40 am 10:40 Sunny 34 1 24 -4.4 68 68 SSW 3 6 30.64 1038 10 16 N/A
10:55 am 10:55 Sunny 35 1.5 24 -4.7 64 64 SW 3 6 30.63 1037 10 16 N/A
11:10 am 11:10 Sunny N/A N/A N/A SSW 6 9 N/A 10 16 N/A
11:55 am 11:55 Sunny N/A N/A N/A S 3 6 N/A 10 16 N/A
12:15 pm 12:15 Sunny 37 3 24 -4.5 58 58 SSW 3 6 30.60 1036 10 16 N/A
12:35 pm 12:35 Sunny 40 4.2 27 -3 60 60 S 6 9 30.59 1036 10 16 N/A
12:55 pm 12:55 Sunny 40 4.4 25 -3.9 55 55 SSW 5 7 30.58 1036 10 16 N/A
1:15 pm 13:15 Sunny 41 5.1 26 -3.6 54 54 SSW 7 11 30.58 1035 10 16 N/A
1:35 pm 13:35 Sunny 42 5.8 25 -4.1 49 49 SSW 5 7 30.55 1035 10 16 N/A
1:55 pm 13:55 Sunny 43 6.2 25 -3.9 49 49 S 7 11 30.54 1034 10 16 N/A
2:15 pm 14:15 Sunny 44 6.8 25 -4.1 46 46 S 3 6 30.53 1034 10 16 N/A
2:35 pm 14:35 Sunny 45 7 24 -4.2 45 45 SSW 7 11 30.52 1034 10 16 N/A
2:55 pm 14:55 Sunny 45 7.3 24 -4.3 44 44 SSE 8 13 30.51 1033 10 16 N/A
3:15 pm 15:15 Sunny 45 7.4 23 -5.1 41 41 S 8 13 30.50 1033 10 16 N/A
3:35 pm 15:35 Sunny 47 8.1 22 -5.5 38 38 SE 7 11 30.49 1032 10 16 N/A
3:55 pm 15:55 Sunny 47 8.6 22 -5.3 37 37 SE 6 9 30.49 1032 10 16 N/A
4:15 pm 16:15 Sunny 48 8.7 20 -6.6 34 34 SSE 7 11 30.47 1032 10 16 N/A
4:35 pm 16:35 Sunny 48 8.8 20 -6.4 34 34 SSE 6 9 30.47 1032 10 16 N/A
4:55 pm 16:55 Sunny 48 9 22 -5.5 36 36 S 7 11 30.46 1032 10 16 N/A
5:15 pm 17:15 Sunny 47 8.6 21 -6.2 35 35 SE 8 13 30.47 1032 10 16 N/A
5:35 pm 17:35 Sunny 47 8.5 19 -7.2 32 32 SSE 7 11 30.47 1032 10 16 N/A
5:55 pm 17:55 Sunny 47 8.1 16 -8.7 30 30 SSE 8 13 30.46 1031 10 16 N/A
6:15 pm 18:15 Sunny 46 7.6 20 -6.4 37 37 SSE 8 13 30.46 1031 10 16 N/A
6:35 pm 18:35 Sunny 44 6.9 22 -5.5 41 41 SSE 7 11 30.46 1032 10 16 N/A
6:55 pm 18:55 Clear 43 6.1 24 -4.6 47 47 SSE 6 9 30.46 1032 10 16 N/A
7:15 pm 19:15 Clear 42 5.4 24 -4.4 50 50 SSE 7 11 30.47 1032 10 16 N/A
7:35 pm 19:35 Clear 41 5.1 24 -4.5 50 50 SSE 7 11 30.48 1032 10 16 N/A
7:55 pm 19:55 Clear 40 4.5 23 -5.1 50 50 S 8 13 30.48 1032 10 16 N/A
8:15 pm 20:15 Clear 40 4.5 22 -5.7 48 48 S 8 13 30.48 1032 10 16 N/A
8:35 pm 20:35 Clear 38 3.6 22 -5.7 51 51 S 7 11 30.49 1033 10 16 N/A
8:55 pm 20:55 Clear 38 3.4 21 -5.9 51 51 S 7 11 30.49 1033 10 16 N/A
9:15 pm 21:15 Clear 38 3.1 20 -6.5 50 50 S 6 9 30.49 1033 10 16 N/A
9:35 pm 21:35 Clear 38 3.2 20 -6.4 50 50 SSE 7 11 30.49 1033 10 16 N/A
9:55 pm 21:55 Clear 38 3.5 20 -6.7 48 48 SSE 7 11 30.48 1032 10 16 N/A
10:15 pm 22:15 Clear 37 3 20 -6.7 49 49 SSE 7 11 30.48 1032 10 16 N/A
10:35 pm 22:35 Clear 38 3.2 20 -6.5 49 49 S 8 13 30.48 1032 10 16 N/A
10:55 pm 22:55 Clear 38 3.3 20 -6.5 49 49 S 7 11 30.48 1032 10 16 N/A
11:15 pm 23:15 Clear 37 2.7 21 -6 53 53 S 8 13 30.47 1032 10 16 N/A
11:35 pm 23:35 Clear 36 2.4 21 -6.1 54 54 S 7 11 30.48 1032 10 16 N/A
11:55 pm 23:55 Clear 36 2.1 21 -6 55 55 S 7 11 30.47 1032 10 16 N/A

Powered by AerisWeather